Red Oak, IA

11:33 AM CDT on April 28, 2017 (GMT -0500)
Red Oak Municipal

Weather History for KRDK - May, 2013

Change the Weather History Date:

Saturday, May 25, 2013

  Actual Average Record
Temperature  
Mean Temperature 68 °F -  
Max Temperature 78 °F 77 °F 97 °F (1953)
Min Temperature 57 °F 52 °F 37 °F (1948)
Cooling Degree Days 2    
Growing Degree Days 18 (Base 50)    
Moisture  
Dew Point 57 °F    
Average Humidity 71    
Maximum Humidity 88    
Minimum Humidity 45    
Precipitation  
Precipitation 0.34 in - - ()
Sea Level Pressure  
Sea Level Pressure 30.07 in    
Wind  
Wind Speed 10 mph (ESE)    
Max Wind Speed 16 mph    
Max Gust Speed 24 mph    
Visibility 10 miles    
Events Rain    
Averages and records for this station are not official NWS values.
T = Trace of Precipitation, MM = Missing Value Source: NWS Daily Summary

Daily Weather History Graph

Daily Weather History Graph

Search for Another Location

Airport or City:

Trip Planner

Search our weather history database for the weather conditions in past years. The results will help you decide how hot, cold, wet, or windy it might be!

Date:

Astronomy

May. 25, 2013 Rise Set
Actual Time 5:54 AM CDT 8:41 PM CDT
Civil Twilight 5:22 AM CDT 9:14 PM CDT
Nautical Twilight 4:42 AM CDT 9:54 PM CDT
Astronomical Twilight 3:55 AM CDT 10:41 PM CDT
Moon 9:30 PM CDT (5/25) 6:22 AM CDT (5/25)
Length of Visible Light 15h 51m
Length of Day
14h 46m
Full, 100% of the Moon is Illuminated
May 25
Full
May 31
Last Quarter
Jun 8
New
Jun 16
First Quarter
Jun 23
Full

Hourly Weather History & Observations

Time (CDT) Temp. Dew Point Humidity Pressure Visibility Wind Dir Wind Speed Gust Speed Precip Events Conditions
12:15 AM 64.4 °F 42.8 °F 45% 30.17 in 10.0 mi ESE 8.1 mph - N/A   Overcast
12:35 AM 64.4 °F 44.6 °F 49% 30.17 in 10.0 mi ESE 8.1 mph - N/A   Overcast
12:55 AM 64.4 °F 44.6 °F 49% 30.15 in 10.0 mi ESE 11.5 mph - N/A   Overcast
1:15 AM 64.4 °F 44.6 °F 49% 30.14 in 10.0 mi ESE 12.7 mph - N/A   Overcast
1:35 AM 62.6 °F 44.6 °F 52% 30.13 in 10.0 mi ESE 12.7 mph 19.6 mph N/A   Overcast
1:55 AM 62.6 °F 44.6 °F 52% 30.13 in 10.0 mi SE 10.4 mph 18.4 mph N/A   Overcast
2:15 AM 62.6 °F 44.6 °F 52% 30.11 in 10.0 mi SE 11.5 mph 16.1 mph N/A   Overcast
2:35 AM 64.4 °F 42.8 °F 45% 30.11 in 10.0 mi SSE 11.5 mph - N/A   Overcast
2:55 AM 64.4 °F 42.8 °F 45% 30.11 in 10.0 mi SSE 10.4 mph - N/A   Overcast
3:15 AM 64.4 °F 44.6 °F 49% 30.11 in 10.0 mi SSE 12.7 mph 18.4 mph N/A   Overcast
3:35 AM 60.8 °F 46.4 °F 59% 30.10 in 10.0 mi SSE 12.7 mph 17.3 mph N/A Rain Light Rain
3:55 AM 62.6 °F 46.4 °F 55% 30.08 in 10.0 mi SE 11.5 mph - N/A   Overcast
4:15 AM 60.8 °F 46.4 °F 59% 30.07 in 10.0 mi SE 12.7 mph - N/A   Mostly Cloudy
4:35 AM 60.8 °F 46.4 °F 59% 30.06 in 10.0 mi SSE 16.1 mph 21.9 mph N/A   Overcast
4:55 AM 62.6 °F 46.4 °F 55% 30.04 in 10.0 mi SSE 11.5 mph - N/A   Overcast
5:15 AM 60.8 °F 46.4 °F 59% 30.04 in 10.0 mi SSE 11.5 mph - N/A   Overcast
5:35 AM 62.6 °F 48.2 °F 59% 30.05 in 10.0 mi South 10.4 mph - N/A Rain Light Rain
5:55 AM 60.8 °F 51.8 °F 72% 30.10 in 7.0 mi SW 15.0 mph 24.2 mph 0.10 in Rain Heavy Rain
6:15 AM 59.0 °F 53.6 °F 82% 30.12 in 10.0 mi SW 3.5 mph - 0.07 in Rain Rain
6:35 AM 59.0 °F 53.6 °F 82% 30.12 in 10.0 mi Calm Calm - 0.12 in Rain Rain
6:55 AM 57.2 °F 53.6 °F 88% 30.12 in 10.0 mi East 4.6 mph - 0.18 in Rain Rain
7:15 AM 57.2 °F 53.6 °F 88% 30.04 in 10.0 mi ENE 9.2 mph - 0.05 in Rain Light Rain
7:35 AM 57.2 °F 53.6 °F 88% 30.12 in 10.0 mi Calm Calm - 0.05 in Rain Rain
7:55 AM 57.2 °F 53.6 °F 88% 30.10 in 10.0 mi East 4.6 mph - 0.05 in   Light Drizzle
8:15 AM 57.2 °F 53.6 °F 88% 30.08 in 10.0 mi ESE 4.6 mph - N/A   Unknown
8:35 AM 59.0 °F 55.4 °F 88% 30.07 in 10.0 mi ESE 6.9 mph - N/A   Unknown
8:55 AM 60.8 °F 55.4 °F 82% 30.09 in 10.0 mi Calm Calm - N/A   Mostly Cloudy
9:15 AM 60.8 °F 57.2 °F 88% 30.13 in 10.0 mi Calm Calm - N/A Rain Light Rain
9:35 AM 60.8 °F 57.2 °F 88% 30.14 in 10.0 mi NE 6.9 mph - 0.01 in Rain Light Rain
9:55 AM 60.8 °F 55.4 °F 82% 30.12 in 10.0 mi East 5.8 mph - 0.01 in   Light Drizzle
10:15 AM 60.8 °F 55.4 °F 82% 30.11 in 10.0 mi East 8.1 mph - N/A Rain Light Rain
10:35 AM 60.8 °F 55.4 °F 82% 30.06 in 10.0 mi ESE 15.0 mph - N/A   Overcast
10:55 AM 60.8 °F 55.4 °F 82% 30.06 in 10.0 mi East 12.7 mph 19.6 mph N/A   Overcast
11:15 AM 60.8 °F 55.4 °F 82% 30.08 in 10.0 mi East 10.4 mph - N/A   Overcast
11:35 AM 62.6 °F 57.2 °F 82% 30.07 in 10.0 mi ESE 16.1 mph 19.6 mph N/A   Mostly Cloudy
11:55 AM 64.4 °F 57.2 °F 77% 30.08 in 10.0 mi ESE 9.2 mph - N/A   Overcast
12:15 PM 64.4 °F 57.2 °F 77% 30.07 in 10.0 mi East 9.2 mph 16.1 mph N/A   Overcast
12:35 PM 66.2 °F 60.8 °F 83% 30.06 in 10.0 mi ESE 9.2 mph - N/A   Unknown
12:55 PM 69.8 °F 62.6 °F 78% 30.06 in 10.0 mi ESE 6.9 mph - N/A   Unknown
1:15 PM 71.6 °F 64.4 °F 78% 30.06 in 10.0 mi East 9.2 mph - N/A   Unknown
1:35 PM 71.6 °F 64.4 °F 78% 30.06 in 10.0 mi ESE 10.4 mph - N/A   Clear
1:55 PM 75.2 °F 64.4 °F 69% 30.05 in 10.0 mi East 10.4 mph - N/A   Clear
2:15 PM 75.2 °F 64.4 °F 69% 30.04 in 10.0 mi ESE 12.7 mph - N/A   Clear
2:35 PM 75.2 °F 66.2 °F 73% 30.04 in 10.0 mi East 12.7 mph 16.1 mph N/A   Clear
2:55 PM 77.0 °F 66.2 °F 69% 30.04 in 10.0 mi East 9.2 mph - N/A   Clear
3:15 PM 78.8 °F 66.2 °F 65% 30.04 in 10.0 mi ESE 12.7 mph - N/A   Clear
3:35 PM 78.8 °F 66.2 °F 65% 30.03 in 10.0 mi East 10.4 mph - N/A   Clear
3:55 PM 78.8 °F 66.2 °F 65% 30.03 in 10.0 mi SE 10.4 mph - N/A   Clear
4:15 PM 78.8 °F 66.2 °F 65% 30.03 in 10.0 mi SE 11.5 mph 16.1 mph N/A   Clear
4:35 PM 78.8 °F 66.2 °F 65% 30.03 in 10.0 mi SE 9.2 mph - N/A   Scattered Clouds
4:55 PM 78.8 °F 66.2 °F 65% 30.03 in 10.0 mi SE 8.1 mph - N/A   Clear
5:15 PM 77.0 °F 64.4 °F 65% 30.03 in 10.0 mi SE 10.4 mph - N/A   Mostly Cloudy
5:35 PM 78.8 °F 64.4 °F 61% 30.02 in 10.0 mi ESE 9.2 mph - N/A   Overcast
5:55 PM 78.8 °F 64.4 °F 61% 30.01 in 10.0 mi East 10.4 mph - N/A   Mostly Cloudy
6:15 PM 78.8 °F 64.4 °F 61% 30.00 in 10.0 mi ESE 11.5 mph - N/A   Scattered Clouds
6:35 PM 78.8 °F 64.4 °F 61% 30.00 in 10.0 mi ESE 11.5 mph - N/A   Clear
6:55 PM 78.8 °F 64.4 °F 61% 29.99 in 10.0 mi ESE 9.2 mph - N/A   Scattered Clouds
7:15 PM 77.0 °F 64.4 °F 65% 30.00 in 10.0 mi ESE 9.2 mph - N/A   Scattered Clouds
7:35 PM 75.2 °F 64.4 °F 69% 30.00 in 10.0 mi ESE 10.4 mph 16.1 mph N/A   Scattered Clouds
7:55 PM 75.2 °F 64.4 °F 69% 30.01 in 10.0 mi East 11.5 mph - N/A   Mostly Cloudy
8:15 PM 71.6 °F 62.6 °F 73% 30.01 in 10.0 mi East 12.7 mph 19.6 mph N/A   Mostly Cloudy
8:35 PM 71.6 °F 62.6 °F 73% 30.01 in 10.0 mi East 12.7 mph - N/A   Mostly Cloudy
8:55 PM 69.8 °F 60.8 °F 73% 30.02 in 10.0 mi East 10.4 mph 16.1 mph N/A   Mostly Cloudy
9:15 PM 68.0 °F 60.8 °F 78% 30.03 in 10.0 mi East 9.2 mph - N/A   Mostly Cloudy
9:35 PM 66.2 °F 60.8 °F 83% 30.04 in 10.0 mi East 8.1 mph - N/A   Mostly Cloudy
9:55 PM 66.2 °F 60.8 °F 83% 30.06 in 10.0 mi ENE 6.9 mph - N/A   Scattered Clouds
10:15 PM 64.4 °F 59.0 °F 83% 30.06 in 10.0 mi East 10.4 mph - N/A   Unknown
10:35 PM 64.4 °F 59.0 °F 83% 30.06 in 10.0 mi East 9.2 mph 17.3 mph N/A   Mostly Cloudy
10:55 PM 64.4 °F 59.0 °F 83% 30.07 in 10.0 mi ESE 11.5 mph 18.4 mph N/A   Overcast
11:15 PM 64.4 °F 59.0 °F 83% 30.06 in 10.0 mi ESE 9.2 mph - N/A   Overcast
11:35 PM 64.4 °F 59.0 °F 83% 30.05 in 10.0 mi ESE 8.1 mph - N/A   Overcast
11:55 PM 64.4 °F 59.0 °F 83% 30.06 in 10.0 mi ESE 5.8 mph - N/A   Overcast